Find Starlink 6374

NORAD ID: 57338 Int'l Des: 2023-099 Owner: SPXS Country: US Constellation: starlink operational
LEOCIRCULAR

Live-Position

3D-Globus wird geladen...

Über Starlink 6374

Beschreibung wird geladen...

Nächste Überflüge

Passes for default location (London). Set your location on the main map for personalized predictions.

Höhenverlauf

Loading altitude history...

Zweizeiliger Elementsatz

1 57338U 23099L 26123.92907068 -.00000403 00000-0 -53580-5 0 9999
2 57338 43.0026 300.5075 0000884 252.3227 107.7528 15.26733788154523
Epoch: 3. Mai 2026 • Age: 15 hours

Aktueller Status

Höhe 497.7 km
Geschwindigkeit 7.62 km/s
Subsatellitenpunkt -41.52°S, 122.06°E
Startdatum 16. Juli 2023
Alter 2.8 years
Typ internet

Technische Details

Klassifizierung Payload
Masse 305.00 kg
Trockenmasse 290.00 kg
Gesamtmasse 305.00 kg
Länge 0.20 m
Durchmesser 2.80 m
Spannweite 9.00 m
Form Box + pan
Hersteller SPXS
Bus-Typ Starlink
Phasenstatus In Orbit
Besitzer/Staat SPXS/US

Most Searched